Flight Track Log - Related Links

Times and Time Zones

All times are in EDT time to prevent confusion due to time zone crossing. See the SWA3853 flight status page for this flight to view local times or setup timezone preferences in your user account.

Time Position Orientation Groundspeed Altitude Reporting Facility
EDT Latitude Longitude Course Direction KTS MPH feet Rate Location/Type
Thu 03:00:00 PM 39.2383 -94.7356 196° South 179 206 3,200  Level Kansas City Center
Thu 03:01:02 PM 39.1772 -94.7814 210° Southwest 225 259 6,200 3,097 Climbing Kansas City Center
Thu 03:02:04 PM 39.1117 -94.8217 205° Southwest 274 315 9,600 3,629 Climbing Kansas City Center
Thu 03:03:06 PM 39.0275 -94.8450 192° South 276 318 13,700 3,097 Climbing Kansas City Center
Thu 03:04:08 PM 38.9539 -94.8672 193° South 283 326 16,000 1,742 Climbing Kansas City Center
Thu 03:05:10 PM 38.8433 -94.8992 193° South 368 423 17,300 1,694 Climbing Kansas City Center
Thu 03:06:12 PM 38.7392 -94.9294 193° South 396 456 19,500 2,371 Climbing Kansas City Center
Thu 03:07:14 PM 38.6339 -94.9658 195° South 407 468 22,200 2,468 Climbing Kansas City Center
Thu 03:08:16 PM 38.5089 -95.0106 196° South 416 479 24,600 2,032 Climbing Kansas City Center
Thu 03:09:18 PM 38.3981 -95.0494 195° South 429 494 26,400 1,984 Climbing Kansas City Center
Thu 03:10:20 PM 38.2664 -95.0947 195° South 436 502 28,700 2,177 Climbing Kansas City Center
Thu 03:11:22 PM 38.1553 -95.1339 195° South 435 501 30,900 2,177 Climbing Kansas City Center
Thu 03:12:24 PM 38.0283 -95.1772 195° South 424 488 33,200 1,839 Climbing Kansas City Center
Thu 03:13:26 PM 37.9303 -95.2111 195° South 414 476 34,700 1,355 Climbing Kansas City Center
Thu 03:14:28 PM 37.7997 -95.2550 195° South 410 472 36,000 629 Climbing Kansas City Center
Thu 03:15:30 PM 37.6886 -95.2933 195° South 408 470 36,000  Level Kansas City Center
Thu 03:16:32 PM 37.5800 -95.3289 195° South 405 466 36,000  Level Kansas City Center
Thu 03:17:34 PM 37.4708 -95.3656 195° South 405 466 36,000  Level Kansas City Center
Thu 03:18:36 PM 37.3583 -95.3786 185° South 409 471 36,000  Level Kansas City Center
Thu 03:19:38 PM 37.2419 -95.3697 177° South 416 479 36,000  Level Kansas City Center
Thu 03:20:40 PM 37.1028 -95.3631 178° South 417 480 36,000  Level Kansas City Center
Thu 03:21:42 PM 36.9878 -95.3583 178° South 414 476 36,000  Level Kansas City Center
Thu 03:22:44 PM 36.8719 -95.3531 178° South 415 478 36,000  Level Kansas City Center
Thu 03:23:46 PM 36.7592 -95.3475 178° South 408 470 36,000  Level Kansas City Center
Thu 03:24:48 PM 36.6486 -95.3428 178° South 400 460 36,000  Level Kansas City Center
Thu 03:25:50 PM 36.5356 -95.3375 178° South 394 453 36,000  Level Kansas City Center
Thu 03:26:52 PM 36.4275 -95.3331 178° South 390 449 36,000  Level Kansas City Center
Thu 03:27:55 PM 36.3214 -95.3283 178° South 387 445 36,000  Level Kansas City Center
Thu 03:28:57 PM 36.1942 -95.3217 178° South 382 440 36,000  Level Kansas City Center
Thu 03:29:59 PM 36.0892 -95.3175 178° South 378 435 36,000  Level Kansas City Center
Thu 03:31:01 PM 35.9775 -95.3119 178° South 379 436 36,000  Level Kansas City Center
Thu 03:32:03 PM 35.8717 -95.3078 178° South 380 437 36,000  Level Kansas City Center
Thu 03:33:05 PM 35.7644 -95.3039 178° South 383 441 36,000  Level Kansas City Center
Thu 03:34:07 PM 35.6589 -95.2986 178° South 380 437 36,000  Level Kansas City Center
Thu 03:35:09 PM 35.5497 -95.2942 178° South 385 443 36,000  Level Kansas City Center
Thu 03:36:02 PM 35.4406 -95.2911 179° South 385 443 36,000  Level Fort Worth Center
Thu 03:37:02 PM 35.3319 -95.2889 179° South 391 450 36,000  Level Fort Worth Center
Thu 03:38:01 PM 35.2325 -95.3294 198° South 370 426 36,000 -300 Level Fort Worth Center
Thu 03:39:02 PM 35.1375 -95.3800 204° Southwest 375 432 35,400 -800 Descending Fort Worth Center
Thu 03:40:01 PM 35.0403 -95.4306 203° Southwest 380 437 34,400 -1,008 Descending Fort Worth Center
Thu 03:41:01 PM 34.9450 -95.4758 201° Southwest 385 443 33,400 -950 Descending Fort Worth Center
Thu 03:42:01 PM 34.8478 -95.5311 205° Southwest 385 443 32,500 -700 Descending Fort Worth Center
Thu 03:43:01 PM 34.7464 -95.5789 201° Southwest 390 449 32,000 -700 Descending Fort Worth Center
Thu 03:44:01 PM 34.6469 -95.6314 203° Southwest 390 449 31,100 -992 Descending Fort Worth Center
Thu 03:45:02 PM 34.5475 -95.6839 204° Southwest 390 449 30,000 -1,050 Descending Fort Worth Center
Thu 03:46:01 PM 34.4567 -95.7489 211° Southwest 390 449 29,000 -756 Descending Fort Worth Center
Thu 03:47:01 PM 34.3761 -95.8283 219° Southwest 379 436 28,500 -750 Descending Fort Worth Center
Thu 03:48:01 PM 34.2894 -95.8978 214° Southwest 379 436 27,500 -1,050 Descending Fort Worth Center
Thu 03:49:01 PM 34.2025 -95.9619 211° Southwest 379 436 26,400 -1,041 Descending Fort Worth Center
Thu 03:50:02 PM 34.1069 -95.9961 196° South 356 410 25,400 -1,339 Descending Fort Worth Center
Thu 03:51:02 PM 34.0028 -96.0006 182° South 368 423 23,700 -1,916 Descending Fort Worth Center
Thu 03:52:01 PM 33.9006 -96.0019 181° South 368 423 21,600 -1,650 Descending Fort Worth Center
Thu 03:53:02 PM 33.8003 -96.0011 180° South 368 423 20,400 -1,500 Descending Fort Worth Center
Thu 03:54:01 PM 33.7003 -96.0103 184° South 368 423 18,600 -2,168 Descending Fort Worth Center
Thu 03:55:01 PM 33.6172 -96.0714 212° Southwest 341 392 16,100 -2,132 Descending Fort Worth Center
Thu 03:56:02 PM 33.5367 -96.1325 212° Southwest 352 405 14,300 -1,785 Descending Fort Worth Center
Thu 03:57:02 PM 33.4642 -96.1858 212° Southwest 347 399 12,500 -1,916 Descending Fort Worth Center
Thu 03:58:01 PM 33.3833 -96.2467 212° Southwest 333 383 10,500 -1,250 Descending Fort Worth Center
Thu 03:59:02 PM 33.3189 -96.2922 211° Southwest 312 359 10,000 -750 Descending Fort Worth Center
Thu 04:00:01 PM 33.2547 -96.3478 216° Southwest 277 319 9,000 -800 Descending Fort Worth Center
Thu 04:01:02 PM 33.2156 -96.4128 234° Southwest 272 313 8,400 -1,100 Descending Fort Worth Center
Thu 04:02:01 PM 33.1725 -96.5025 240° Southwest 279 321 6,800 -1,513 Descending Fort Worth Center
Thu 04:03:01 PM 33.1458 -96.5847 249° West 280 322 5,400 -1,438 Descending Fort Worth Center
Thu 04:04:02 PM 33.1172 -96.6644 247° West 270 311 3,900 -750 Descending Fort Worth Center
Thu 04:05:01 PM 33.0864 -96.7392 244° Southwest 258 297 3,900 -450 Level Fort Worth Center
Thu 04:06:02 PM 33.0572 -96.8011 241° Southwest 229 264 3,000 -500 Descending Fort Worth Center
Thu 04:07:01 PM 33.0283 -96.8658 242° Southwest 219 252 2,900  Descending Fort Worth Center
Thu 04:07:16 PM 33.0167 -96.8833 232° Southwest 219 252 3,000 -560 Climbing Dallas / Fort Worth TRACON
Thu 04:08:16 PM 32.9833 -96.9333 232° Southwest 221 254 2,200 -579 Descending Dallas / Fort Worth TRACON
Thu 04:09:10 PM 32.9333 -96.9500 196° South 192 221 1,900 -211 Descending Dallas / Fort Worth TRACON
Thu 04:10:10 PM 32.9000 -96.9167 140° Southeast 139 160 1,800 -429 Descending Dallas / Fort Worth TRACON
Thu 04:11:16 PM 32.8833 -96.8833 121° Southeast 134 154 1,000 -727 Descending Dallas / Fort Worth TRACON

Login

Don't have an account? Register now (free) for customized features, flight alerts, and more!